Cairo, Egypt

5:11 AM EET on June 25, 2017 (GMT +0200)
Cairo International Airport

Weather History for HECA - October, 2012

Change the Weather History Date:

Sunday, October 7, 2012

  Actual Average Record
Temperature  
Mean Temperature 78 °F -  
Max Temperature 84 °F 81 °F 90 °F (2014)
Min Temperature 72 °F 62 °F 62 °F (1997)
Cooling Degree Days 13    
Growing Degree Days 28 (Base 50)    
Moisture  
Dew Point 62 °F    
Average Humidity 59    
Maximum Humidity 78    
Minimum Humidity 38    
Precipitation  
Precipitation 0.00 in 0.00 in - ()
Sea Level Pressure  
Sea Level Pressure 29.96 in    
Wind  
Wind Speed 7 mph ()    
Max Wind Speed 15 mph    
Max Gust Speed -    
Visibility 4.4 miles    
Events      
Averages and records for this station are not official NWS values.
T = Trace of Precipitation, MM = Missing Value Source: Averaged Metar Reports

Daily Weather History Graph

Daily Weather History Graph

Search for Another Location

Airport or City:

Trip Planner

Search our weather history database for the weather conditions in past years. The results will help you decide how hot, cold, wet, or windy it might be!

Date:

Astronomy

Oct. 07, 2012 Rise Set
Actual Time 5:51 AM EET 5:32 PM EET
Civil Twilight 5:27 AM EET 5:56 PM EET
Nautical Twilight 4:59 AM EET 6:24 PM EET
Astronomical Twilight 4:31 AM EET 6:51 PM EET
Moon 10:41 PM EET (10/7) 11:56 AM EET (10/7)
Length of Visible Light 12h 28m
Length of Day
11h 40m
Waning Gibbous, 58% of the Moon is Illuminated
Oct 7
Waning Gibbous
Oct 8
Last Quarter
Oct 15
New
Oct 22
First Quarter
Oct 29
Full

Hourly Weather History & Observations

Time (EET) Temp. Heat Index Dew Point Humidity Pressure Visibility Wind Dir Wind Speed Gust Speed Precip Events Conditions
12:00 AM 75.2 °F - 62.6 °F 65% 29.98 in 2.5 mi North 6.9 mph - N/A   Haze
12:30 AM 75.2 °F - 62.6 °F 65% 29.98 in 2.5 mi North 6.9 mph - N/A   Haze
1:00 AM 75.2 °F - 62.6 °F 65% 29.98 in 2.5 mi North 6.9 mph - N/A   Haze
1:30 AM 73.4 °F - 62.6 °F 69% 29.95 in 2.5 mi NW 2.3 mph - N/A   Haze
2:00 AM 73 °F - 61 °F 58% 29.96 in 2 mi East 2.3 mph - -   Haze
2:00 AM 73.4 °F - 60.8 °F 65% 29.95 in 2.5 mi East 2.3 mph - N/A   Haze
2:30 AM 73.4 °F - 60.8 °F 65% 29.95 in 2.5 mi East 2.3 mph - N/A   Haze
3:00 AM 73.4 °F - 62.6 °F 69% 29.95 in 2.5 mi NW 4.6 mph - N/A   Haze
3:30 AM 73.4 °F - 64.4 °F 73% 29.95 in 2.5 mi West 2.3 mph - N/A   Haze
4:00 AM 73.4 °F - 64.4 °F 73% 29.95 in 2.5 mi WNW 5.8 mph - N/A   Haze
4:30 AM 73.4 °F - 64.4 °F 73% 29.95 in 2.5 mi WNW 5.8 mph - N/A   Haze
5:00 AM 73.4 °F - 64.4 °F 73% 29.95 in 2.5 mi West 4.6 mph - N/A   Mist
5:30 AM 73.4 °F - 64.4 °F 73% 29.95 in 2.5 mi WNW 5.8 mph - N/A   Mist
6:00 AM 71.6 °F - 64.4 °F 78% 29.95 in 1.9 mi WSW 5.8 mph - N/A   Mist
6:30 AM 71.6 °F - 64.4 °F 78% 29.95 in 1.9 mi WSW 5.8 mph - N/A   Mist
7:00 AM 73.4 °F - 64.4 °F 73% 29.98 in 1.9 mi WSW 5.8 mph - N/A   Mist
7:30 AM 73.4 °F - 64.4 °F 73% 29.98 in 1.9 mi WSW 5.8 mph - N/A   Mist
8:00 AM 74 °F - 64 °F 65% 29.99 in 4 mi WSW 8.1 mph - -   Mist
8:00 AM 73.4 °F - 64.4 °F 73% 29.98 in 3.7 mi WSW 8.1 mph - N/A   Unknown
8:30 AM 75.2 °F - 64.4 °F 69% 29.98 in 3.7 mi WSW 8.1 mph - N/A   Unknown
9:00 AM 77.0 °F - 64.4 °F 65% 29.98 in 3.7 mi West 6.9 mph - N/A   Scattered Clouds
9:30 AM 77.0 °F - 64.4 °F 65% 29.98 in 6.2 mi WNW 8.1 mph - N/A   Mostly Cloudy
10:00 AM 78.8 °F - 64.4 °F 61% 29.98 in 6.2 mi WSW 6.9 mph - N/A   Mostly Cloudy
10:30 AM 78.8 °F - 62.6 °F 57% 29.98 in 6.2 mi WNW 9.2 mph - N/A   Mostly Cloudy
11:00 AM 78.8 °F - 66.2 °F 65% 29.98 in 6.2 mi West 8.1 mph - N/A   Mostly Cloudy
11:30 AM 78.8 °F - 66.2 °F 65% 29.98 in 6.2 mi West 8.1 mph - N/A   Mostly Cloudy
12:00 PM 82.4 °F 82.9 °F 60.8 °F 48% 29.95 in 6.2 mi West 9.2 mph - N/A   Mostly Cloudy
12:30 PM 82.4 °F 82.5 °F 59.0 °F 45% 29.95 in 6.2 mi WNW 9.2 mph - N/A   Mostly Cloudy
1:00 PM 84.2 °F 83.8 °F 59.0 °F 42% 29.95 in 6.2 mi WNW 9.2 mph - N/A   Mostly Cloudy
1:30 PM 84.2 °F 85.0 °F 62.6 °F 48% 29.92 in 6.2 mi West 8.1 mph - N/A   Mostly Cloudy
2:00 PM 85 °F - 63 °F 38% 29.92 in 6 mi West 8.1 mph - -   Mostly Cloudy
2:00 PM 84.2 °F 85.0 °F 62.6 °F 48% 29.92 in 6.2 mi West 8.1 mph - N/A   Mostly Cloudy
2:30 PM 84.2 °F 83.5 °F 57.2 °F 40% 29.92 in 6.2 mi NW 9.2 mph - N/A   Mostly Cloudy
3:00 PM 84.2 °F 83.5 °F 57.2 °F 40% 29.92 in 6.2 mi WNW 12.7 mph - N/A   Mostly Cloudy
3:30 PM 84.2 °F 83.5 °F 57.2 °F 40% 29.92 in 6.2 mi WNW 12.7 mph - N/A   Mostly Cloudy
4:00 PM 84.2 °F 83.5 °F 57.2 °F 40% 29.92 in 6.2 mi NW 11.5 mph - N/A   Mostly Cloudy
4:30 PM 84.2 °F 83.8 °F 59.0 °F 42% 29.92 in 6.2 mi NW 11.5 mph - N/A   Mostly Cloudy
5:00 PM 82.4 °F 82.0 °F 57.2 °F 42% 29.92 in 6.2 mi NW 10.4 mph - N/A   Mostly Cloudy
5:30 PM 82.4 °F 81.7 °F 55.4 °F 39% 29.95 in 6.2 mi NW 10.4 mph - N/A   Scattered Clouds
6:00 PM 82.4 °F 81.7 °F 55.4 °F 39% 29.95 in 6.2 mi NW 11.5 mph - N/A   Scattered Clouds
6:30 PM 80.6 °F 81.1 °F 59.0 °F 48% 29.95 in 6.2 mi North 11.5 mph - N/A   Partly Cloudy
7:00 PM 78.8 °F - 62.6 °F 57% 29.95 in - North 15.0 mph - N/A   Clear
7:30 PM 78.8 °F - 62.6 °F 57% 29.98 in - North 12.7 mph - N/A   Clear
8:00 PM 78 °F - 62 °F 48% 29.98 in 6 mi North 12.7 mph - -  
8:00 PM 78.8 °F - 62.6 °F 57% 29.98 in - North 12.7 mph - N/A   Clear
8:30 PM 78.8 °F - 62.6 °F 57% 29.98 in - North 12.7 mph - N/A   Clear
9:00 PM 77.0 °F - 60.8 °F 57% 29.98 in - North 12.7 mph - N/A   Clear
9:30 PM 77.0 °F - 60.8 °F 57% 29.98 in - North 12.7 mph - N/A   Clear
10:00 PM 75.2 °F - 62.6 °F 65% 29.98 in - North 8.1 mph - N/A   Clear
10:30 PM 75.2 °F - 60.8 °F 61% 29.98 in - NE 6.9 mph - N/A   Clear
11:00 PM 75.2 °F - 62.6 °F 65% 29.98 in - NE 6.9 mph - N/A   Clear
11:30 PM 75.2 °F - 62.6 °F 65% 29.98 in - NNE 8.1 mph - N/A   Clear